Oakes, ND

8:58 AM CDT on March 23, 2017 (GMT -0500)
Oakes

Weather History for K2D5 - October, 2012

Change the Weather History Date:

Wednesday, October 17, 2012

  Actual Average (KP67) Record (KP67)
Temperature  
Mean Temperature 49 °F -  
Max Temperature 57 °F 56 °F 68 °F (1997)
Min Temperature 41 °F 34 °F 37 °F (1996)
Degree Days  
Heating Degree Days 16    
Moisture  
Dew Point 44 °F    
Average Humidity 90    
Maximum Humidity 100    
Minimum Humidity 63    
Precipitation  
Precipitation 0.86 in - - ()
Sea Level Pressure  
Sea Level Pressure 29.26 in    
Wind  
Wind Speed 17 mph (West)    
Max Wind Speed 37 mph    
Max Gust Speed 48 mph    
Visibility 8 miles    
Events Rain    
Averages and records for this station are not official NWS values.
T = Trace of Precipitation, MM = Missing Value Source: NWS Daily Summary

Daily Weather History Graph

Daily Weather History Graph

Search for Another Location

Airport or City:

Trip Planner

Search our weather history database for the weather conditions in past years. The results will help you decide how hot, cold, wet, or windy it might be!

Date:

Astronomy

Oct. 17, 2012 Rise Set
Actual Time 7:52 AM CDT 6:41 PM CDT
Civil Twilight 7:22 AM CDT 7:11 PM CDT
Nautical Twilight 6:47 AM CDT 7:46 PM CDT
Astronomical Twilight 6:12 AM CDT 8:21 PM CDT
Moon 10:39 AM CDT (10/17) 8:07 PM CDT (10/17)
Length of Visible Light 11h 49m
Length of Day
10h 48m
Waxing Crescent, 7% of the Moon is Illuminated
Oct 17
Waxing Crescent
Oct 21
First Quarter
Oct 29
Full
Nov 6
Last Quarter
Nov 13
New

Hourly Weather History & Observations

Time (CDT) Temp. Windchill Dew Point Humidity Pressure Visibility Wind Dir Wind Speed Gust Speed Precip Events Conditions
12:15 AM 57.2 °F - 44.6 °F 63% 29.27 in 10.0 mi SSE 11.5 mph - N/A   Partly Cloudy
12:35 AM 57.2 °F - 46.4 °F 67% 29.27 in 10.0 mi South 13.8 mph - N/A   Partly Cloudy
12:55 AM 57.2 °F - 46.4 °F 67% 29.27 in 10.0 mi West 6.9 mph - N/A   Mostly Cloudy
1:15 AM 55.4 °F - 48.2 °F 77% 29.27 in 8.0 mi SW 8.1 mph - N/A Rain Light Rain
1:35 AM 55.4 °F - 50.0 °F 82% 29.26 in 7.0 mi SSW 6.9 mph - N/A Rain Light Rain
1:55 AM 55.4 °F - 51.8 °F 88% 29.26 in 8.0 mi South 6.9 mph - N/A Rain Light Rain
2:15 AM 55.4 °F - 51.8 °F 88% 29.25 in 10.0 mi South 8.1 mph - N/A   Mostly Cloudy
2:35 AM 53.6 °F - 53.6 °F 100% 29.25 in 7.0 mi SSE 5.8 mph - N/A Rain Light Rain
2:55 AM 53.6 °F - 53.6 °F 100% 29.25 in 8.0 mi SSE 5.8 mph - 0.01 in Rain Light Rain
3:15 AM 53.6 °F - 53.6 °F 100% 29.24 in 7.0 mi South 4.6 mph - N/A Rain Light Rain
3:55 AM 51.8 °F - 51.8 °F 100% 29.24 in 4.0 mi SW 4.6 mph - 0.06 in Rain Light Rain
4:15 AM 51.8 °F - 51.8 °F 100% 29.24 in 3.0 mi West 5.8 mph - 0.02 in Rain Rain
4:35 AM 51.8 °F - 51.8 °F 100% 29.24 in 3.0 mi West 10.4 mph 18.4 mph 0.17 in Rain Rain
4:55 AM 53.6 °F - 53.6 °F 100% 29.25 in 3.0 mi West 16.1 mph 20.7 mph 0.21 in Rain Light Rain
5:15 AM 51.8 °F - 51.8 °F 100% 29.24 in 5.0 mi WNW 18.4 mph 25.3 mph 0.02 in Rain Rain
5:35 AM 50.0 °F - 50.0 °F 100% 29.24 in 6.0 mi WNW 18.4 mph 21.9 mph 0.05 in Rain Light Rain
5:55 AM 48.2 °F - 48.2 °F 100% 29.24 in 4.0 mi WNW 18.4 mph 24.2 mph 0.14 in Rain Rain
6:15 AM 48.2 °F - 48.2 °F 100% 29.24 in 5.0 mi WNW 16.1 mph 20.7 mph 0.04 in Rain Rain
6:35 AM 48.2 °F - 48.2 °F 100% 29.24 in 7.0 mi WNW 11.5 mph - 0.07 in Rain Light Rain
6:55 AM 48.2 °F - 48.2 °F 100% 29.24 in 10.0 mi West 8.1 mph - 0.07 in Rain Light Rain
7:15 AM 48.2 °F - 48.2 °F 100% 29.23 in 10.0 mi West 13.8 mph 19.6 mph N/A   Partly Cloudy
7:35 AM 48.2 °F - 46.4 °F 93% 29.23 in 10.0 mi West 13.8 mph - N/A   Clear
7:55 AM 48.2 °F - 46.4 °F 93% 29.23 in 10.0 mi West 9.2 mph - N/A   Mostly Cloudy
8:15 AM 48.2 °F - 46.4 °F 93% 29.23 in 10.0 mi West 13.8 mph 18.4 mph N/A   Overcast
8:35 AM 46.4 °F 39.0 °F 42.8 °F 87% 29.23 in 10.0 mi West 19.6 mph 23.0 mph N/A   Scattered Clouds
8:55 AM 46.4 °F 39.2 °F 42.8 °F 87% 29.23 in 10.0 mi West 18.4 mph 26.5 mph N/A   Clear
9:15 AM 46.4 °F 39.8 °F 44.6 °F 93% 29.23 in 10.0 mi West 16.1 mph 26.5 mph N/A   Clear
9:35 AM 46.4 °F 39.8 °F 44.6 °F 93% 29.23 in 10.0 mi West 16.1 mph 23.0 mph N/A   Clear
9:55 AM 46.4 °F 40.1 °F 44.6 °F 93% 29.23 in 10.0 mi West 15.0 mph 19.6 mph N/A   Partly Cloudy
10:15 AM 48.2 °F - 46.4 °F 93% 29.23 in 10.0 mi West 17.3 mph 20.7 mph N/A   Mostly Cloudy
10:35 AM 48.2 °F - 46.4 °F 93% 29.22 in 10.0 mi West 18.4 mph 25.3 mph N/A   Mostly Cloudy
10:55 AM 48.2 °F - 46.4 °F 93% 29.22 in 10.0 mi West 18.4 mph 21.9 mph N/A   Mostly Cloudy
11:15 AM 50.0 °F - 48.2 °F 94% 29.22 in 10.0 mi West 20.7 mph 26.5 mph N/A   Overcast
11:35 AM 48.2 °F - 46.4 °F 93% 29.22 in 9.0 mi WNW 26.5 mph 40.3 mph N/A   Overcast
11:55 AM 48.2 °F - 44.6 °F 87% 29.22 in 10.0 mi WNW 29.9 mph 42.6 mph N/A   Overcast
12:15 PM 46.4 °F 36.4 °F 42.8 °F 87% 29.22 in 10.0 mi WNW 35.7 mph 44.9 mph N/A   Overcast
12:35 PM 46.4 °F 37.2 °F 42.8 °F 87% 29.23 in 10.0 mi WNW 29.9 mph 40.3 mph N/A   Overcast
12:55 PM 46.4 °F 37.7 °F 41.0 °F 81% 29.24 in 10.0 mi WNW 26.5 mph 40.3 mph N/A   Overcast
1:15 PM 46.4 °F 37.7 °F 41.0 °F 81% 29.24 in 10.0 mi WNW 26.5 mph 36.8 mph N/A   Overcast
1:35 PM 46.4 °F 36.5 °F 39.2 °F 76% 29.23 in 10.0 mi WNW 34.5 mph 44.9 mph N/A   Overcast
1:55 PM 46.4 °F 37.4 °F 39.2 °F 76% 29.24 in 10.0 mi WNW 28.8 mph 42.6 mph N/A   Overcast
2:15 PM 46.4 °F 36.9 °F 39.2 °F 76% 29.24 in 10.0 mi WNW 32.2 mph 41.4 mph N/A   Overcast
2:35 PM 46.4 °F 37.0 °F 39.2 °F 76% 29.25 in 10.0 mi WNW 31.1 mph 48.3 mph N/A   Overcast
2:55 PM 46.4 °F 36.5 °F 39.2 °F 76% 29.24 in 10.0 mi WNW 34.5 mph 43.7 mph N/A   Overcast
3:15 PM 44.6 °F 34.6 °F 39.2 °F 81% 29.24 in 10.0 mi WNW 31.1 mph 40.3 mph N/A   Overcast
3:35 PM 44.6 °F 34.6 °F 39.2 °F 81% 29.25 in 10.0 mi WNW 31.1 mph 46.0 mph N/A   Overcast
3:55 PM 44.6 °F 34.2 °F 39.2 °F 81% 29.26 in 10.0 mi WNW 33.4 mph 44.9 mph N/A   Overcast
4:15 PM 44.6 °F 34.2 °F 39.2 °F 81% 29.26 in 10.0 mi WNW 33.4 mph 42.6 mph N/A   Overcast
4:35 PM 44.6 °F 34.9 °F 39.2 °F 81% 29.27 in 10.0 mi WNW 28.8 mph 41.4 mph N/A   Overcast
4:55 PM 44.6 °F 35.7 °F 39.2 °F 81% 29.28 in 10.0 mi WNW 24.2 mph 42.6 mph N/A   Overcast
5:15 PM 44.6 °F 34.7 °F 39.2 °F 81% 29.28 in 10.0 mi WNW 29.9 mph 46.0 mph N/A   Overcast
5:35 PM 44.6 °F 34.7 °F 39.2 °F 81% 29.29 in 10.0 mi WNW 29.9 mph 41.4 mph N/A   Overcast
5:55 PM 44.6 °F 34.6 °F 39.2 °F 81% 29.29 in 10.0 mi WNW 31.1 mph 39.1 mph N/A   Overcast
6:15 PM 44.6 °F 35.1 °F 39.2 °F 81% 29.30 in 10.0 mi WNW 27.6 mph 43.7 mph N/A   Overcast
6:55 PM 42.8 °F 31.9 °F 39.2 °F 87% 29.31 in 10.0 mi WNW 32.2 mph 42.6 mph N/A   Overcast
7:15 PM 41.0 °F 30.2 °F 39.2 °F 93% 29.31 in 10.0 mi WNW 27.6 mph 43.7 mph N/A   Overcast
7:35 PM 41.0 °F 28.8 °F 39.2 °F 93% 29.31 in 10.0 mi WNW 36.8 mph 47.2 mph N/A Rain Light Rain
7:55 PM 41.0 °F 30.5 °F 41.0 °F 100% 29.32 in 10.0 mi WNW 26.5 mph 35.7 mph N/A Rain Light Rain
8:15 PM 41.0 °F 29.5 °F 41.0 °F 100% 29.31 in 8.0 mi WNW 32.2 mph 42.6 mph N/A Rain Light Rain
8:35 PM 41.0 °F 29.5 °F 41.0 °F 100% 29.31 in 5.0 mi WNW 32.2 mph 38.0 mph 0.01 in Rain Light Rain
8:55 PM 41.0 °F 29.8 °F 41.0 °F 100% 29.31 in 5.0 mi WNW 29.9 mph 43.7 mph 0.03 in Rain Light Rain
9:15 PM 41.0 °F 30.2 °F 41.0 °F 100% 29.31 in 5.0 mi WNW 27.6 mph 41.4 mph 0.01 in Rain Light Rain
9:35 PM 41.0 °F 30.5 °F 41.0 °F 100% 29.31 in 7.0 mi WNW 26.5 mph 39.1 mph 0.02 in Rain Light Rain
9:55 PM 41.0 °F 29.8 °F 41.0 °F 100% 29.31 in 8.0 mi WNW 29.9 mph 41.4 mph 0.02 in Rain Light Rain
10:15 PM 41.0 °F 30.9 °F 41.0 °F 100% 29.31 in 9.0 mi WNW 24.2 mph 34.5 mph N/A Rain Light Rain
10:35 PM 41.0 °F 30.0 °F 41.0 °F 100% 29.31 in 6.0 mi WNW 28.8 mph 39.1 mph 0.02 in Rain Light Rain
10:55 PM 41.0 °F 29.5 °F 41.0 °F 100% 29.30 in 4.0 mi WNW 32.2 mph 40.3 mph 0.08 in Rain Rain
11:15 PM 41.0 °F 29.7 °F 41.0 °F 100% 29.30 in 4.0 mi WNW 31.1 mph 42.6 mph 0.04 in Rain Rain
11:35 PM 41.0 °F 29.5 °F 41.0 °F 100% 29.29 in 3.0 mi WNW 32.2 mph 46.0 mph 0.14 in Rain Heavy Rain
11:55 PM 41.0 °F 30.9 °F 39.2 °F 93% 29.29 in 3.0 mi WNW 24.2 mph 40.3 mph 0.24 in Rain Rain